Regional Weather Roundup
Issued by NWS

Home | Current Version | Previous Version | Text Only | Print | Product List | Glossary Off
Versions: 1 2 3 4 5 6 7 8 9 10 11 12 13 14 15 16 17 18 19 20 21 22 23 24 25 26 27 28 29 30 31 32 33 34 35 36 37 38 39 40 41 42 43 44 45 46 47 48 49 50

732
ASUS43 KLSX 270210
RWRMO

WEATHER SUMMARY FOR MISSOURI
NATIONAL WEATHER SERVICE SPRINGFIELD MO
900 PM CDT THU MAY 26 2016

NOTE: "FAIR" INDICATES FEW OR NO CLOUDS BELOW 12,000 FEET WITH NO
       SIGNIFICANT WEATHER AND/OR OBSTRUCTIONS TO VISIBILITY.
       CURRENT SKY AND/OR WEATHER CONDITIONS ARE NOT AVAILABLE FOR
       CHILLICOTHE AND FARMINGTON.

MOZ001>031-035>038-043-044-053-054-270300-
...NORTHERN AND WESTERN MISSOURI...

CITY           SKY/WX    TMP DP  RH WIND       PRES   REMARKS
KANSAS CTY INT TSTM      63  60  90 N8        29.87R
KANSAS C DTWN  LGT RAIN  65  60  84 VRB6      29.89R
LEE`S SUMMIT   RAIN      63  60  90 E18       29.86R FOG
ST JOSEPH      LGT RAIN  63  60  90 NW12      29.90R
CHILLICOTHE      N/A     64  62  93 N7        29.92F
KIRKSVILLE     HVY RAIN  66  62  87 CALM      30.01R FOG

$$
MOZ066>068-077>081-088>096-101>105-270300-
...SOUTHWEST MISSOURI...

CITY           SKY/WX    TMP DP  RH WIND       PRES   REMARKS
SPRINGFIELD    LGT RAIN  69  59  70 SE8       29.81F
JOPLIN         CLEAR     71  59  65 SE9       29.78F
BRANSON        MOCLDY    66  64  94 SE8       29.86F

$$
MOZ032>034-039>042-045>050-055>058-069>072-270300-
...CENTRAL MISSOURI...

CITY           SKY/WX    TMP DP  RH WIND       PRES   REMARKS
COLUMBIA       LGT RAIN  66  61  84 N14G24    29.89F
JEFFERSON CITY TSTM      67  65  93 NW3       29.87R FOG
ROLLA          CLOUDY    75  70  84 S13       29.84F
SEDALIA        RAIN      66  64  93 MISG      29.91R FOG
WARRENSBURG    TSTM      63  63 100 NE9G20    29.88

$$
MOZ051-052-059>065-270300-
...EAST CENTRAL MISSOURI...

CITY           SKY/WX    TMP DP  RH WIND       PRES   REMARKS
ST LOUIS INTL  CLOUDY    77  66  68 S13G20    29.89R
SPIRIT OF STL  CLOUDY    74  68  81 VRB5      29.86S
ST CHARLES     CLOUDY    74  68  81 SE9       29.87R

$$
MOZ072>076-082>087-097>100-106>115-270300-
...SOUTH CENTRAL AND SOUTHEAST MISSOURI...

CITY           SKY/WX    TMP DP  RH WIND       PRES   REMARKS
CAPE GIRARDEAU CLOUDY    69  63  81 S14       29.97R
FARMINGTON     CLOUDY    70  64  81 S12       29.95R
POPLAR BLUFF   LGT RAIN  67  64  90 S7        29.98F
WEST PLAINS    CLOUDY    73  64  73 S12       29.89F

$$




USA.gov is the U.S. government's official web portal to all federal, state and local government web resources and services.